Dewpoint
55 55 56 56 56 56 56 57 57 57 57 57 57 57 58 58 58 58 58 58 59 59 59 59 60 60 60 60 61 60 60 57 53 45 43 40 55 65 64 63 61 64 61 43 41 32 31 30 28 30 36 43 46 42 49 45 44 43 37 32 29 26 24 25 21 23 21 17 11 14 15 13 17 21 25 23 23 22 21 21 21 21 19 21 25 29 45 49
55 55 55 56 56 56 56 56 57 57 57 57 57 57 57 57 57 57 57 58 58 59 59 59 60 60 60 60 60 60 59 58 48 43 39 59 64 64 65 64 65 61 58 42 33 29 29 27 28 29 35 36 51 39 41 44 43 40 33 31 27 28 26 22 20 18 18 19 16 14 14 17 15 17 21 19 19 18 17 16 16 16 17 20 21 27 43 46
55 55 55 55 56 55 55 56 56 56 56 56 56 57 57 57 57 57 57 58 58 58 59 59 59 60 60 60 60 59 58 56 47 36 47 64 65 64 66 66 61 62 48 37 32 30 26 26 27 28 32 27 37 35 43 39 38 34 33 28 26 29 25 23 21 20 24 22 19 18 17 17 17 17 22 21 19 20 19 19 18 16 16 15 18 24 34 42
55 55 55 55 56 55 55 56 56 56 56 57 57 57 56 57 57 57 57 57 58 58 58 59 59 59 59 60 60 58 58 58 43 38 51 68 66 65 67 64 62 61 51 40 34 30 28 28 25 28 34 27 32 36 36 38 36 35 30 28 29 24 21 17 16 17 20 19 22 22 20 18 18 18 19 20 20 21 21 21 19 17 16 13 13 16 34 30
55 55 55 55 55 55 55 56 56 56 56 58 57 57 56 57 57 57 58 57 57 58 58 58 59 59 59 60 59 58 57 40 34 46 58 65 67 67 66 64 62 52 46 39 34 31 29 25 23 32 33 23 29 27 26 31 30 36 25 27 27 26 24 20 18 18 24 25 25 23 21 20 20 20 20 22 20 19 17 17 17 17 17 16 16 17 23 23
55 55 55 55 55 55 55 56 56 56 57 57 57 56 56 57 58 58 58 58 57 57 57 58 58 58 59 59 58 59 49 13 40 52 63 66 67 67 66 64 62 49 40 37 32 32 30 25 24 30 25 22 21 18 18 25 30 28 29 26 26 25 23 23 22 27 26 25 23 23 23 20 20 20 20 21 22 22 22 21 22 22 22 22 21 21 23 25
55 55 55 55 55 55 55 56 56 57 57 57 57 57 57 57 57 58 57 57 57 57 57 58 58 58 59 58 57 49 42 28 43 64 66 67 66 66 65 64 61 56 41 35 29 31 29 24 24 22 23 22 20 19 18 17 19 22 23 25 24 22 18 16 18 22 27 27 24 24 25 22 21 19 20 20 20 21 21 21 21 22 24 24 23 23 22 24
56 55 55 55 55 56 55 56 56 57 57 57 57 57 57 57 57 57 57 57 57 57 57 57 58 58 57 55 57 47 45 31 52 63 65 66 64 63 62 59 52 53 41 32 29 27 30 24 21 28 20 17 18 15 16 19 21 17 22 28 27 23 19 20 23 24 24 23 22 26 26 24 23 21 20 19 19 20 20 20 20 20 20 21 23 22 22 25
57 56 55 56 56 55 55 56 56 56 57 57 57 57 57 58 57 57 57 57 57 57 57 57 57 58 59 55 49 37 30 55 55 62 65 61 57 57 55 45 45 41 37 32 30 31 36 28 24 25 19 18 20 18 20 19 19 21 19 21 20 21 23 23 21 19 20 21 22 25 25 25 23 23 21 21 21 21 20 19 19 19 19 19 19 18 18 18
57 57 57 56 55 55 56 56 56 56 56 57 57 57 58 57 57 57 57 57 57 57 57 57 57 57 53 53 48 32 52 40 61 59 61 57 54 52 49 52 40 38 36 32 31 29 29 29 37 35 33 24 25 21 21 19 18 21 21 21 20 21 21 21 20 19 18 17 17 17 21 23 23 23 18 19 18 18 17 16 17 17 17 15 14 15 15 15
57 56 57 56 55 55 56 56 56 56 56 57 57 57 57 57 57 57 57 57 57 56 56 56 58 56 51 46 37 33 50 54 54 57 56 55 51 46 49 52 41 41 36 38 32 32 30 30 42 34 37 24 22 20 21 20 21 23 21 21 20 20 20 19 18 17 17 17 17 17 17 18 19 25 19 19 19 18 17 16 14 16 17 16 16 15 21 19
56 56 57 55 55 56 56 56 56 56 57 57 57 57 57 57 57 57 57 56 56 56 56 57 57 56 52 44 36 42 44 49 56 53 51 53 54 54 54 44 41 51 40 34 41 47 47 45 43 31 22 28 20 21 20 21 23 22 20 18 18 18 17 18 17 17 17 16 18 20 20 18 19 18 19 20 19 18 17 16 16 15 13 16 17 16 18 19
56 56 56 56 56 56 56 56 56 57 57 57 57 57 57 57 57 56 56 56 56 56 56 57 56 55 54 38 37 54 50 50 53 52 52 49 49 46 49 51 49 42 45 39 42 45 46 43 40 29 30 26 24 21 29 27 22 22 21 19 18 17 16 17 17 17 17 16 19 16 15 15 15 16 17 18 17 17 17 17 15 16 15 13 14 13 16 17
57 56 57 57 57 57 57 57 57 58 58 58 58 58 57 57 56 56 56 56 56 56 56 57 56 55 49 28 43 48 45 50 52 49 52 53 45 53 51 52 50 45 50 46 47 43 48 38 44 33 33 27 25 31 23 22 22 20 20 19 19 19 18 19 18 18 17 21 18 15 17 14 15 16 17 16 16 14 12 12 12 13 13 13 16 18 19 18
57 57 58 58 58 57 57 57 58 58 58 59 59 58 57 57 56 56 56 57 56 55 56 56 56 54 37 24 44 46 56 46 41 47 51 44 44 49 47 44 50 47 37 38 46 45 36 45 42 32 27 27 27 24 21 20 19 18 17 19 24 20 21 19 21 17 16 20 19 15 20 14 15 16 17 17 16 15 13 13 13 14 14 14 15 14 16 21
58 58 58 59 59 59 58 58 58 58 59 59 59 58 58 57 56 55 56 56 56 56 55 55 53 54 36 24 48 54 48 36 39 49 46 51 49 48 45 46 46 45 38 34 38 39 31 42 28 29 26 23 23 21 21 23 22 20 18 22 22 24 22 21 22 18 17 18 19 15 16 17 16 17 18 17 16 16 15 15 15 15 15 15 15 14 17 25
58 58 59 59 59 59 58 58 58 58 59 59 59 59 56 56 55 57 57 56 55 55 56 48 45 41 22 38 36 39 33 48 47 50 47 43 48 45 41 43 39 38 42 36 41 42 32 29 35 31 35 23 22 28 23 23 21 23 25 20 26 23 22 22 22 21 28 17 16 16 14 15 15 16 16 16 16 16 15 15 15 15 15 15 17 18 19 23
59 59 59 59 59 59 59 59 59 59 59 59 59 58 55 56 57 57 55 56 57 55 53 52 45 43 30 36 27 29 42 38 52 48 48 41 47 42 39 32 38 34 35 30 40 27 31 29 27 26 27 24 21 23 22 20 25 25 26 26 24 23 22 21 21 23 22 22 17 17 16 16 17 19 19 18 17 16 15 15 14 14 14 16 20 22 27 32
59 59 59 59 59 59 59 59 59 59 59 59 60 55 56 57 57 56 53 50 50 49 38 34 38 31 30 33 33 37 49 47 47 48 39 44 49 41 42 36 42 29 33 27 28 27 33 34 36 31 27 23 20 20 21 23 23 22 23 22 23 23 22 21 22 23 22 21 20 20 20 20 19 18 18 17 16 16 15 15 15 16 17 17 22 28 30 33
59 59 59 59 59 59 59 59 59 59 59 58 56 56 54 51 49 44 43 46 39 37 36 37 32 31 33 34 41 41 51 50 36 47 44 49 41 41 34 31 42 37 29 33 33 28 34 29 28 27 25 24 24 23 22 21 21 21 25 26 22 23 23 23 22 23 23 21 21 20 20 19 18 18 17 17 16 17 16 17 17 18 19 29 28 31 32 33
59 59 59 59 59 59 59 60 60 59 59 58 57 54 45 43 42 40 42 42 40 38 37 40 39 37 36 40 44 43 39 36 37 43 48 48 45 33 31 31 34 32 31 30 33 32 35 29 30 29 26 25 25 25 25 25 24 23 25 26 23 28 22 22 22 23 23 22 20 19 19 20 18 19 19 19 19 18 17 17 18 18 27 30 30 30 32 32
59 59 59 59 59 59 59 59 59 59 59 58 56 48 45 44 46 47 45 40 47 47 47 45 44 43 43 43 40 43 41 36 37 44 49 47 36 31 30 30 30 30 32 33 32 32 31 29 28 28 28 27 26 26 26 25 26 27 25 25 25 23 25 23 22 23 21 23 19 19 18 19 19 20 20 21 20 20 20 22 26 28 29 29 31 31 31 31
59 59 59 59 59 59 60 60 59 59 58 55 52 48 48 50 49 50 46 41 40 43 43 43 42 43 42 39 39 38 36 36 36 41 38 48 35 34 34 29 29 28 35 28 31 31 30 30 28 28 28 27 26 26 25 26 29 27 25 24 23 26 26 24 23 23 23 21 21 21 20 20 20 21 21 22 21 21 27 30 34 34 32 32 31 30 30 31
59 59 59 59 59 59 60 59 59 59 58 54 51 50 51 51 51 47 45 39 38 40 46 45 42 41 41 37 38 36 36 36 37 37 41 40 31 39 38 29 29 31 29 28 28 30 29 30 29 27 32 27 27 28 29 25 23 30 31 27 24 26 25 25 23 24 24 23 26 23 24 22 22 21 21 20 23 22 23 30 32 34 35 34 34 33 33 31
59 59 59 59 59 59 59 58 57 56 56 53 52 52 50 52 50 51 45 39 40 40 48 49 48 46 37 47 47 34 35 37 38 36 43 46 34 32 31 32 31 30 31 30 29 30 29 29 32 26 31 28 32 25 27 32 24 25 30 28 27 26 24 30 29 26 25 23 28 29 21 23 24 24 23 24 21 21 25 27 28 30 31 31 31 32 32 34
59 59 59 59 59 59 58 56 55 55 54 53 51 51 52 52 53 50 42 37 34 42 43 40 48 35 46 33 45 43 33 31 37 43 47 45 42 34 29 28 30 31 28 33 28 31 29 31 36 34 33 33 33 31 31 32 26 27 26 37 36 31 32 31 30 28 22 18 27 26 21 21 23 23 24 23 23 24 24 27 28 29 30 31 31 31 31 32
59 59 58 59 59 59 56 51 55 57 52 53 53 51 53 52 53 50 42 37 34 42 39 36 40 40 44 37 40 39 28 34 43 43 41 45 34 41 29 28 29 29 28 31 30 27 29 28 34 33 33 34 32 29 33 30 29 24 33 37 33 31 30 30 30 28 24 27 28 27 25 21 22 24 25 25 24 21 23 26 27 28 29 30 30 30 30 31
57 57 57 59 59 58 57 58 56 54 51 52 52 52 52 52 52 50 41 32 30 40 35 33 36 43 42 30 41 29 26 34 33 32 36 44 40 33 31 28 28 30 26 31 26 35 28 32 33 34 32 31 29 30 36 35 30 30 32 33 30 30 30 30 28 25 25 23 23 25 28 22 23 25 24 24 23 21 23 24 26 27 29 29 30 31 30 30
54 55 56 57 59 58 58 57 56 53 52 53 52 50 53 52 48 43 36 30 39 37 42 29 45 41 36 33 28 25 25 28 26 32 41 40 43 33 28 28 27 25 25 28 26 32 31 35 36 36 33 29 32 27 38 36 31 37 34 32 33 32 31 31 25 24 24 22 22 24 27 22 23 28 27 24 22 20 22 24 26 28 29 29 29 30 30 30
53 53 55 57 58 57 57 57 56 53 52 51 50 51 49 47 44 36 33 28 41 33 35 34 37 31 28 25 25 24 22 26 30 32 33 32 37 39 31 28 26 27 33 27 31 30 27 27 32 32 33 32 29 30 36 37 35 34 35 32 30 31 29 27 26 24 22 22 24 27 27 25 24 26 24 25 28 19 21 25 27 28 29 28 29 29 30 30
52 52 54 57 57 57 57 55 56 53 52 50 50 51 50 47 38 33 30 36 39 40 38 37 30 36 25 27 25 24 31 25 28 29 30 34 30 31 29 29 33 30 27 28 29 32 31 32 31 33 32 29 31 35 33 34 34 32 26 25 26 26 25 24 23 24 20 22 23 24 30 26 21 25 26 18 17 19 21 25 26 27 28 29 29 29 29 29
50 50 51 56 55 56 56 54 54 53 51 51 54 53 51 39 42 33 32 35 32 37 37 34 36 35 30 35 33 28 26 25 28 27 27 28 32 28 28 29 30 26 26 27 27 33 30 31 33 36 33 32 32 29 32 33 32 28 25 23 23 24 22 20 23 18 21 21 21 22 26 24 24 24 23 23 23 17 20 25 27 28 28 29 29 29 30 29
49 49 51 53 54 56 56 54 53 52 53 54 53 52 44 37 30 36 34 35 31 40 37 39 35 30 36 35 35 38 37 33 27 26 34 36 33 33 34 30 35 28 22 27 26 25 26 34 34 34 35 34 35 25 28 27 27 25 23 24 23 19 15 13 16 18 19 23 22 22 26 21 23 23 24 22 23 26 28 29 29 28 28 29 29 29 29 29
48 50 52 52 53 54 54 53 53 53 53 54 52 45 41 32 32 39 36 35 38 40 38 36 31 35 36 33 37 37 31 39 32 28 33 34 31 31 32 34 32 35 30 26 23 23 21 21 32 34 30 34 31 28 29 34 27 24 28 28 26 21 17 15 15 15 16 21 23 26 21 21 18 23 24 26 28 29 29 29 29 29 29 28 28 27 27 27
48 49 51 52 53 54 55 54 53 54 55 52 48 42 33 32 34 34 34 36 38 37 38 40 38 37 37 37 38 38 33 32 38 35 34 32 29 31 32 26 34 32 33 25 29 25 26 25 29 36 35 31 31 33 34 34 30 29 30 30 25 26 25 22 22 24 22 23 21 20 23 22 21 22 25 28 29 29 29 29 28 28 28 29 28 27 27 27
47 49 48 46 50 54 55 55 54 55 54 50 43 36 34 36 34 36 36 38 37 37 37 39 38 36 32 32 38 37 41 32 37 34 34 33 33 30 32 33 35 31 29 23 27 22 21 18 35 38 35 31 31 38 36 34 25 28 28 25 28 33 28 25 24 25 25 23 21 23 22 24 23 22 23 28 27 27 27 27 27 28 28 28 27 27 26 27
48 50 46 47 49 55 55 55 55 54 53 48 41 35 39 38 39 40 41 36 36 37 37 32 35 31 32 29 32 34 37 37 35 33 29 36 31 33 33 34 39 33 30 29 29 29 23 24 33 33 31 34 33 32 35 35 33 28 24 28 32 34 32 25 22 21 22 20 20 21 20 20 20 20 27 26 26 26 26 26 26 27 26 26 26 26 26 26
48 47 45 47 49 54 55 55 54 53 50 46 39 39 42 39 39 37 40 40 39 40 37 34 34 34 32 29 30 35 38 31 33 33 31 32 27 32 31 31 36 32 30 35 27 32 33 25 28 34 35 34 34 31 30 34 37 28 28 34 25 24 25 25 23 19 19 19 19 19 20 20 21 21 22 24 26 25 25 25 24 24 24 24 24 25 25 24
47 47 43 46 49 54 54 55 54 51 47 40 37 37 40 40 40 43 40 39 42 40 37 36 33 35 31 29 32 32 34 29 32 31 28 28 24 33 30 35 35 30 29 30 30 32 33 26 27 36 35 33 32 30 26 27 33 34 31 28 33 27 26 24 24 26 23 20 20 19 21 19 23 26 25 24 25 25 24 24 24 25 25 25 25 26 26 26
45 43 41 51 51 53 54 54 50 48 43 35 38 37 42 40 39 39 39 37 40 37 37 36 36 32 34 33 35 29 35 32 29 28 28 31 28 31 31 36 35 34 32 34 35 36 28 33 26 30 33 31 27 28 27 28 26 25 24 24 25 26 28 27 26 25 23 21 19 18 17 20 27 27 26 26 27 26 24 24 25 25 25 25 25 26 26 26
47 44 42 50 52 54 53 50 46 42 39 41 41 40 40 38 40 41 42 43 42 42 38 37 35 32 33 32 29 31 30 30 31 29 30 30 26 26 38 37 37 37 37 37 34 35 28 30 27 29 28 27 29 30 31 32 32 32 28 26 26 24 25 22 21 25 24 23 21 20 19 23 29 26 25 24 25 27 27 25 24 25 25 27 27 26 25 25
43 33 40 49 53 53 49 42 43 44 40 37 37 39 39 41 40 42 43 43 43 43 39 37 39 39 36 32 32 32 31 30 31 33 34 30 33 32 40 38 37 39 35 31 33 38 34 31 29 28 28 29 30 32 33 33 33 32 30 29 31 28 28 26 23 25 27 26 29 27 24 24 29 28 25 25 25 25 25 25 28 26 25 25 25 24 24 24
39 32 48 49 51 51 46 41 41 42 39 39 42 41 41 42 42 42 41 45 42 40 42 39 37 35 37 36 36 34 34 33 35 33 35 35 35 37 39 37 39 39 36 32 38 34 35 28 28 29 31 32 32 33 34 35 34 31 31 33 31 29 32 29 29 28 25 27 25 25 24 27 35 29 26 25 26 26 25 25 26 25 25 24 23 23 22 22
38 43 45 50 50 50 43 35 36 38 39 40 40 39 42 40 40 41 40 41 40 41 39 40 40 36 36 39 37 33 35 30 35 35 34 35 33 40 39 37 34 32 35 32 32 38 29 29 28 26 25 24 22 22 28 33 33 30 29 30 33 33 32 31 30 30 26 26 26 24 19 23 34 30 29 28 26 28 27 27 27 25 25 25 23 24 23 22
37 42 44 47 50 49 40 38 35 35 37 38 37 37 38 40 42 40 39 38 40 40 39 38 38 38 38 40 38 37 37 35 31 35 34 34 36 38 37 38 36 35 37 38 40 39 31 28 27 24 20 17 14 13 15 25 29 28 30 30 32 31 27 28 24 24 23 28 27 24 23 25 31 33 30 29 30 26 26 26 26 31 27 25 24 25 23 23
34 32 40 42 46 45 45 45 43 39 35 35 35 35 36 35 37 41 41 39 38 39 38 39 40 39 37 37 36 35 35 35 33 30 31 32 34 32 33 35 33 34 37 38 33 35 28 29 27 27 24 21 20 20 26 28 26 24 25 25 26 27 27 26 26 25 22 23 23 23 23 22 24 24 24 24 28 29 26 26 26 25 24 24 23 23 22 21
35 29 36 34 43 42 41 43 41 40 37 36 33 35 33 34 34 39 42 37 38 37 39 39 38 37 37 36 35 34 35 34 36 32 31 31 32 34 37 35 34 35 37 33 35 28 29 27 28 28 29 28 28 27 29 29 27 26 24 24 25 24 24 23 24 22 23 23 19 22 23 21 22 23 23 23 23 23 22 22 25 22 23 24 23 21 23 17
28 28 35 38 37 34 36 37 41 40 39 38 34 34 33 33 33 32 41 41 41 40 36 38 38 38 36 35 35 32 32 31 31 31 33 31 31 34 34 35 32 35 35 32 34 29 24 22 23 24 22 25 25 25 24 22 22 22 23 23 22 23 22 20 20 22 23 22 19 21 22 21 21 21 21 19 19 19 25 25 25 23 23 22 22 21 20 20
32 28 28 33 34 36 38 39 40 39 38 38 36 36 34 31 31 32 35 37 38 36 37 31 34 36 36 37 34 31 30 24 25 29 28 27 27 27 28 30 32 32 31 27 29 27 23 21 22 23 20 22 23 24 25 24 23 23 22 22 23 22 22 22 21 22 21 21 21 21 21 20 21 20 20 23 24 23 23 23 23 22 22 23 22 21 20 20
28 27 26 36 36 33 37 38 39 38 36 37 35 34 35 34 31 35 36 36 33 35 37 34 31 34 33 34 34 30 30 31 27 26 27 26 25 25 25 26 24 26 26 25 27 27 24 20 21 23 19 18 22 24 25 24 20 20 20 21 20 20 19 20 19 20 21 20 21 20 20 20 21 23 23 23 23 22 20 18 19 21 21 21 20 19 19 18
33 33 35 31 31 32 33 35 37 36 35 35 34 34 35 34 33 34 36 35 35 32 34 33 33 33 31 31 31 30 32 30 29 27 29 26 23 27 24 23 28 24 25 23 25 26 26 22 22 20 18 18 19 18 20 21 21 20 20 20 20 20 19 20 19 20 18 17 18 19 18 17 19 21 20 18 15 14 13 14 14 14 10 10 10 11 12 13
35 33 35 31 29 32 30 32 34 35 33 34 34 34 33 33 34 34 32 34 33 33 34 35 34 31 30 29 28 31 32 31 32 32 31 30 29 30 30 29 29 26 23 23 26 22 22 22 21 21 20 19 21 18 17 17 16 16 17 18 19 18 19 19 19 20 20 19 17 15 15 17 21 23 20 15 10 10 9 10 10 10 11 9 8 9 10 9